{"data":{"norad_id":62582,"epoch":"2026-05-25T03:10:17.214816Z","epoch_age_seconds":63712,"freshness":"FRESH","line1":"1 62582U 25007H   26145.13214369 -.00000018  00000+0  11643-3 0  9991","line2":"2 62582  54.9822  12.1179 0012560  47.1036 313.0972 13.80607055 71548","mean_motion":13.80607055,"eccentricity":0.001256,"inclination_deg":54.9822,"raan_deg":12.1179,"arg_perigee_deg":47.1036,"mean_anomaly_deg":313.0972,"bstar":0.00011643,"rev_number":7154,"period_min":104.30194419077,"perigee_km":952.51549248549,"apogee_km":970.95324936925,"semimajor_km":7339.8713709274,"source":"CELESTRAK","updated_at":"2026-05-25T13:38:03.091616Z"}}